sat.trackr.live / text

‹ back to catalog

STARLINK-34502

NORAD 64680 · 2025-139S

PAYLOAD ACTIVE UNKNOWN

§ Identity

Operator
Country
US
Launch date
2025-06-28
Launch site
AFETR
Launch vehicle
Mass (kg)
RCS (m²)

Purposes: comms

External: N2YO · Heavens-Above · Gunter

§ Orbital elements

Epoch: 2026-09-20T10:07:08.426784Z

Period
93.84 min
Inclination
53.1601°
Eccentricity
0.0004439
Mean motion
15.34447527 rev/d
Perigee alt
459.5 km
Apogee alt
465.6 km
Semi-major
6,840.7 km
B*
5.9822e-4
RAAN
297.9034°
Arg perigee
27.9994°
Mean anomaly
332.1246°
Rev number
7,016

§ Raw data

STARLINK-345021 64680U 25139S   26263.42162531  .00019923  00000+0  59822-3 0  99992 64680  53.1601 297.9034 0004439  27.9994 332.1246 15.34447527 70163

JSON: /api/v1/satellites/64680 · /tle

For live sub-satellite position, see the globe view (requires WebGL).

§ Visibility from observer

Set your observer location to see the next 7 days of passes ≥ 10°. The values pass through the URL so the page stays shareable.

No JS? Fill the form by hand. The geolocation button needs JavaScript.